Retour au catalogue

KINEIS-5C

ActifCommunicationsSSO
NORAD 62081·PAYLOAD·🇫🇷 France

Lancé Nov 25, 2024 depuis Rocket Lab Launch Complex 1

Loading…

Prochains Passages (prochaines 24 heures)

TLE

FraisSource: Space-Track

Époque: Sep 14, 2026, 15:11 UTC

1 62081U 24219A   26257.63291149  .00000473  00000-0  82405-4 0  9999
2 62081  97.9147  54.0578 0004154  15.8005 344.3332 14.72315336 96910

Suivez KINEIS-5C en temps réel avec AllMySat

Download on the App Store